Location: Lombard
(41.8800°N, 88.0080°W)
Time: 00:11:40
(UTC-05:00)

A-11 Canister half - Pass Details

Date: 29 January 2023
Orbit: 1512 x 1687 km, 47.2° (Epoch: 20 March)

Event Time Altitude Azimuth Distance (km) Brightness Sun altitude
Rises 10:04:44 0° 193° (SSW) 4,851 12.3 24.1°
Reaches altitude 10° 10:08:33 10° 182° (S) 3,841 12.2 24.5°
Maximum altitude 10:16:09 26° 130° (SE) 2,716 12.0 25.2°
Drops below altitude 10° 10:23:32 10° 78° (ENE) 3,744 11.3 25.8°
Sets 10:27:10 0° 67° (ENE) 4,707 11.6 26.1°
